GFSFLT2_250_spd_000.txt.gz
Wind_Speed
94 89 86 85 81 71 61 39 28 22 19 21 24 25 26 27 30 31 33 31 30 30 29 29 27 26 28 27 26 24 12 7
97 81 77 75 67 53 35 24 20 22 21 22 25 27 31 32 32 33 33 32 31 29 28 28 29 28 27 26 24 22 21 7
80 70 66 58 46 33 24 24 25 27 27 27 30 31 32 36 35 35 33 32 30 29 29 28 27 26 27 24 24 22 18 14
67 64 52 44 36 29 27 30 31 33 33 33 35 37 40 39 40 37 34 35 35 34 32 30 29 26 26 26 23 21 20 15
47 46 39 31 31 32 34 37 38 39 40 41 42 43 43 41 40 39 40 40 36 36 36 34 30 29 28 28 28 25 21 20
38 34 33 33 37 38 39 41 44 48 51 49 48 47 43 45 44 44 44 43 43 43 41 39 39 38 37 36 34 34 32 29
35 34 38 39 43 43 44 46 49 52 48 49 50 50 49 47 48 47 47 47 47 46 45 44 43 41 41 41 42 42 40 36
35 39 45 48 50 48 49 51 53 50 47 48 49 50 49 47 47 47 49 50 50 50 50 50 49 49 49 49 47 44 44 44
39 38 46 53 56 52 52 51 51 47 48 51 51 48 49 50 51 52 51 50 51 53 54 56 56 56 56 54 52 52 49 46
18 46 50 58 57 52 47 48 50 51 52 49 51 54 54 56 55 55 54 55 57 59 59 57 57 57 57 55 55 55 55 55
30 49 56 58 49 46 50 52 53 52 53 54 59 57 57 58 60 60 59 58 59 60 60 60 62 64 64 63 66 65 65 64
34 40 49 49 48 50 48 49 53 57 59 56 60 61 62 62 63 65 65 64 64 66 66 67 70 70 72 73 75 75 73 71
42 45 50 47 45 50 57 59 59 57 60 61 65 66 67 66 67 68 69 71 73 74 75 77 79 81 81 82 81 82 81 83
45 46 51 51 53 58 59 61 63 63 66 67 67 67 69 73 74 75 77 79 82 85 87 87 87 89 91 92 93 89 91 93
49 50 51 57 59 60 64 65 67 68 70 71 68 73 77 80 82 84 88 90 94 96 96 99 98 97 102 104 102 101 101 103
53 54 57 64 64 62 65 68 71 73 73 73 78 83 87 89 92 94 96 98 102 105 108 110 112 110 109 112 116 119 117 110
55 57 63 66 67 68 70 70 71 75 79 81 85 90 94 97 99 103 104 107 110 114 115 118 121 122 123 124 125 120 118 113
60 65 65 68 69 73 75 78 83 86 89 91 94 98 101 105 110 113 116 118 121 121 125 127 127 131 132 126 122 116 108 106
64 69 72 73 72 75 81 85 90 93 95 99 102 104 110 115 118 123 124 127 129 130 134 137 134 132 129 118 109 103 100 97
65 72 75 77 79 80 84 89 94 98 102 107 110 114 119 122 125 130 132 133 134 135 134 129 122 114 111 105 101 99 96 97

GFSFLT2_250_spd_003.txt.gz
Wind_Speed
96 97 100 102 97 87 72 71 64 52 41 36 29 30 28 31 32 33 34 37 37 33 30 29 29 27 25 22 21 19 22 23
97 101 99 96 81 71 63 54 44 38 33 31 32 33 32 34 37 39 40 40 40 35 33 32 30 31 27 24 21 20 15 19
97 98 90 82 72 62 52 46 40 36 38 40 39 39 41 43 44 45 46 46 44 39 35 33 33 30 26 25 25 24 21 16
91 81 74 71 60 55 49 43 38 39 39 44 48 48 49 55 49 48 46 45 44 40 40 36 35 33 30 26 24 26 27 23
73 60 56 59 50 47 39 39 42 46 45 49 51 51 52 53 52 48 47 46 44 43 39 39 39 37 34 31 31 29 25 27
58 52 54 49 43 44 46 47 47 50 53 54 56 57 55 54 50 46 46 47 45 44 44 45 44 42 41 37 35 34 35 33
50 45 39 45 48 50 46 47 49 50 53 58 59 57 54 51 49 48 46 48 49 49 50 50 48 46 44 44 42 41 40 39
37 24 40 40 51 41 47 57 56 53 54 55 55 54 52 54 50 50 51 53 53 53 51 51 50 48 47 47 47 45 44 45
20 12 42 36 46 37 52 61 57 49 46 51 55 55 52 54 55 56 54 54 54 55 54 52 50 48 49 49 48 48 48 49
28 33 43 51 47 50 58 57 52 54 54 49 52 57 59 62 59 59 60 59 56 57 56 55 56 56 55 53 53 54 55 56
29 38 45 47 50 53 56 58 57 54 52 57 61 60 61 61 62 64 64 62 62 63 63 64 65 66 65 62 61 60 61 63
29 35 40 42 51 57 59 58 54 55 61 63 63 64 66 67 68 67 68 66 66 68 71 73 73 72 72 72 74 75 75 75
35 41 43 46 51 58 58 55 57 62 65 65 65 66 68 70 73 74 73 73 76 79 80 80 82 83 82 82 83 84 85 86
40 44 50 53 57 59 59 60 63 68 68 69 70 73 74 74 76 78 79 81 85 88 89 88 90 94 96 95 92 91 94 93
50 51 53 56 58 56 60 64 66 68 71 73 78 80 81 84 86 87 88 90 93 96 100 101 102 104 109 109 106 103 100 102
51 55 58 56 55 58 62 66 70 74 75 78 81 84 89 92 96 98 100 102 105 107 110 113 115 116 115 118 119 118 113 107
56 59 60 60 61 64 67 72 76 78 81 84 88 92 96 100 103 106 110 115 118 120 121 124 123 121 120 121 125 123 117 109
56 57 61 63 68 71 75 81 85 89 91 94 96 100 106 110 111 114 118 122 124 125 125 124 122 122 123 121 114 110 109 107
59 62 65 66 68 71 77 84 88 92 94 97 102 107 112 116 122 126 130 131 129 129 128 127 122 117 114 109 105 102 99 97
56 62 68 73 77 82 88 93 97 101 104 107 110 113 121 126 126 130 134 133 130 126 122 116 110 106 103 101 97 94 92 91

GFSFLT2_250_spd_006.txt.gz
Wind_Speed
92 93 90 91 94 95 97 98 87 76 60 56 53 45 40 38 37 40 41 40 43 48 48 49 48 40 39 35 32 25 25 26
93 94 92 93 95 94 93 89 76 52 54 47 47 41 43 44 44 46 50 52 52 55 54 52 47 41 40 37 32 28 24 23
94 91 90 92 90 88 82 63 57 57 52 49 46 44 46 45 46 50 50 53 53 52 49 46 42 41 39 37 35 31 29 27
88 87 87 88 83 69 52 53 48 50 47 48 49 48 50 51 55 53 56 56 53 46 42 43 42 42 40 40 39 36 33 31
87 84 85 77 59 57 47 45 45 48 48 54 55 53 54 55 55 56 54 52 47 47 45 43 43 43 45 47 46 43 39 37
83 79 72 64 49 43 44 46 50 49 47 45 49 54 56 55 52 48 49 48 49 48 46 48 50 50 50 48 46 45 45 44
65 66 57 49 44 47 47 46 47 45 48 53 52 58 53 47 48 49 50 47 48 49 52 51 50 51 51 51 53 52 49 48
60 55 54 47 48 43 43 44 43 48 52 56 57 58 56 53 48 48 54 54 53 54 55 55 56 57 58 56 55 54 54 53
59 53 45 47 48 52 46 53 53 47 57 61 63 61 59 53 55 58 58 57 56 55 57 59 59 59 58 56 55 57 59 59
42 45 46 51 53 59 60 62 56 56 59 62 63 60 55 57 61 65 65 64 62 62 62 62 62 63 63 62 62 63 65 67
44 42 47 52 56 59 60 60 59 61 60 63 61 60 59 61 65 66 64 65 69 69 69 66 68 69 69 68 68 69 72 74
42 46 49 50 52 54 55 56 60 63 67 67 63 63 65 69 71 71 70 70 74 76 75 74 76 76 77 76 79 81 83 84
42 47 47 47 52 55 57 61 63 67 68 63 65 68 71 72 74 75 77 79 80 81 80 83 84 84 82 83 84 86 89 94
45 47 49 52 54 57 60 65 68 68 65 67 71 73 76 79 82 85 87 87 87 89 90 91 93 95 95 94 93 94 97 98
42 47 51 53 57 61 65 68 67 68 71 74 79 82 84 87 91 92 91 91 93 96 98 101 104 106 107 108 109 106 105 108
48 52 55 58 61 63 64 66 68 70 74 79 83 86 90 94 97 98 100 102 105 108 111 114 116 117 118 118 121 119 116 111
54 55 57 59 61 61 63 65 69 74 80 85 90 94 97 100 104 106 110 113 118 121 125 128 130 129 128 130 130 124 116 114
54 57 58 59 62 64 68 72 77 81 86 91 96 100 105 108 112 115 118 124 129 132 134 135 136 134 129 124 118 111 105 103
56 56 58 62 65 69 73 77 82 86 91 96 101 105 109 115 119 122 127 133 138 137 135 134 132 128 123 117 112 106 101 94
60 63 67 71 73 76 79 81 85 90 95 101 106 113 118 122 125 129 136 139 133 130 128 125 122 115 108 103 97 95 92 89

GFSFLT2_250_spd_009.txt.gz
Wind_Speed
89 85 87 90 93 90 92 93 93 95 91 88 83 65 57 53 49 47 45 48 47 50 53 55 57 56 54 51 44 42 39 36
83 87 89 89 92 91 90 95 94 91 86 78 59 56 53 48 48 47 48 48 49 54 57 57 57 55 46 40 39 40 40 37
89 88 87 87 89 93 89 91 89 88 76 74 60 51 51 49 51 50 50 52 54 56 55 54 52 46 44 40 39 42 42 41
89 88 86 88 90 88 91 83 80 74 70 61 53 53 52 50 46 45 51 54 53 47 44 45 46 47 45 42 43 43 45 44
82 84 88 88 84 83 75 75 72 62 63 58 61 58 50 47 48 50 54 54 52 50 49 49 47 46 48 50 50 49 46 47
83 80 77 83 75 69 71 69 63 62 59 61 60 58 54 54 51 52 55 57 56 52 45 50 54 52 52 51 49 48 50 52
83 87 84 82 82 75 66 57 58 60 60 58 55 56 57 56 57 57 63 64 56 53 53 57 58 58 57 57 56 56 57 56
79 78 78 70 70 59 56 54 56 59 57 59 62 63 66 66 63 62 60 60 56 56 57 58 58 59 61 61 61 62 62 60
76 73 68 60 57 56 55 57 58 61 63 64 67 65 64 63 65 66 64 61 59 60 61 61 60 62 62 64 65 67 66 65
78 68 48 47 45 50 57 59 62 64 64 65 66 65 64 67 70 70 67 62 62 65 66 64 64 66 68 69 70 71 71 69
42 35 34 40 53 58 59 65 67 67 66 63 64 65 68 70 71 72 67 67 68 69 70 70 70 71 74 76 78 78 78 77
34 40 46 51 64 67 70 69 71 70 67 66 67 69 70 72 72 70 72 73 74 76 77 80 81 81 81 80 82 84 86 85
41 45 50 55 60 68 70 71 72 71 71 72 73 75 75 74 74 74 75 77 79 81 83 86 89 90 91 89 88 89 90 91
55 56 57 59 62 66 69 68 69 72 74 75 75 75 75 76 78 79 82 85 89 90 91 93 96 98 98 98 96 99 102 103
55 55 52 53 56 60 63 68 70 72 73 75 78 79 79 82 86 89 91 93 97 100 102 105 107 108 111 111 110 109 110 115
49 50 50 52 57 60 65 70 72 73 75 77 79 81 85 89 93 96 101 104 108 111 114 119 121 123 124 127 129 129 128 123
48 49 53 58 62 66 68 69 72 75 78 80 83 87 91 96 103 106 109 113 116 121 124 126 128 130 130 128 126 125 124 120
51 53 58 61 63 66 68 71 73 75 78 83 89 96 100 104 107 113 117 120 124 127 129 130 130 128 127 124 121 119 118 116
54 57 59 62 65 68 71 73 77 81 85 89 92 98 102 108 114 116 122 127 130 130 130 127 126 125 124 122 117 112 107 102
56 57 60 64 67 70 72 74 79 83 88 92 98 103 108 115 121 126 131 131 126 125 122 122 119 118 115 110 103 98 97 94

GFSFLT2_250_spd_012.txt.gz
Wind_Speed
72 75 79 80 83 84 88 95 92 95 92 90 97 99 94 91 86 77 72 65 61 57 49 47 49 55 53 54 50 44 41 38
77 76 80 84 89 92 95 95 90 86 90 95 96 91 84 88 72 70 61 60 54 53 45 48 51 51 45 43 42 41 41 39
82 86 91 91 90 90 82 83 84 95 93 88 82 81 74 73 65 65 64 60 51 49 50 49 49 50 54 47 45 43 42 42
82 82 82 88 93 89 83 83 89 85 85 88 71 74 74 66 68 66 65 61 54 51 47 53 52 55 52 46 45 47 47 45
84 85 80 65 74 82 90 83 86 83 79 74 74 69 69 69 64 61 62 61 61 62 58 53 55 55 51 45 47 47 50 49
87 81 81 84 85 85 83 83 83 73 67 67 69 66 66 67 64 66 65 64 68 63 58 56 57 54 53 52 51 50 50 51
73 76 79 81 85 78 77 68 65 62 63 62 65 69 66 67 67 67 68 67 65 64 61 64 63 58 54 56 58 57 55 53
78 79 78 79 77 75 65 63 65 70 68 62 59 62 63 67 69 69 67 65 65 64 67 69 68 64 60 61 62 63 61 58
90 79 78 73 67 54 53 54 61 58 60 51 57 63 69 69 69 71 71 71 68 69 70 70 69 65 65 65 66 66 64 63
78 71 61 48 41 45 52 59 61 58 58 65 69 72 73 73 73 73 71 70 71 73 75 74 72 70 72 72 72 73 73 73
59 51 39 29 50 60 61 56 62 67 72 76 77 77 77 76 74 74 75 77 78 79 77 76 75 73 72 74 77 78 78 79
44 41 42 44 55 64 65 67 70 73 76 76 80 78 77 76 76 78 80 81 80 79 79 79 79 79 82 84 87 88 87 88
45 44 51 55 58 62 67 70 75 78 79 78 76 76 76 78 79 80 80 80 82 83 85 87 90 91 91 92 93 97 99 99
45 49 54 59 64 67 69 72 72 72 74 75 75 77 80 81 81 82 85 87 88 89 89 91 94 95 97 99 99 102 106 109
52 55 58 61 62 62 65 66 68 70 72 74 76 78 81 84 86 88 90 90 92 94 96 98 102 107 110 113 114 114 116 116
49 52 55 57 57 58 60 63 67 70 73 76 79 82 86 88 89 91 93 95 98 101 106 110 113 117 119 122 126 129 131 128
44 48 50 53 57 60 63 66 70 73 75 77 79 82 83 85 89 94 99 104 106 111 116 119 123 127 130 132 135 134 131 126
47 50 53 56 59 61 64 66 69 72 74 76 77 81 86 91 95 99 104 109 111 117 124 128 130 134 133 132 128 124 124 123
52 54 56 58 59 61 63 66 68 71 74 78 82 86 90 95 101 107 112 118 120 125 128 129 121 121 120 117 117 117 113 111
53 54 56 58 60 61 64 67 70 73 77 81 86 92 98 103 110 115 118 119 120 123 120 117 118 115 112 110 103 99 95 91

GFSFLT2_250_spd_015.txt.gz
Wind_Speed
78 74 71 76 80 84 79 82 81 87 91 92 89 94 93 92 93 92 84 87 73 69 67 64 59 54 49 44 44 43 43 41
74 75 78 79 81 85 84 85 83 82 95 92 95 87 85 87 83 82 82 67 74 67 62 61 58 52 48 47 46 44 46 42
76 80 86 80 77 77 85 87 86 83 89 90 83 86 79 80 79 80 73 72 67 61 61 57 58 55 50 49 47 49 48 42
65 66 68 69 78 85 86 82 82 86 86 82 85 80 79 77 72 72 70 67 65 60 60 58 57 53 50 48 46 49 50 48
68 77 78 87 86 82 80 82 82 85 87 88 77 80 80 71 73 71 67 63 57 59 60 58 57 50 49 49 50 51 51 51
69 73 72 78 80 82 84 83 84 86 82 83 76 78 75 71 68 63 59 58 62 66 65 61 59 58 56 55 55 55 54 50
68 67 69 76 77 79 86 91 86 80 78 77 72 75 71 60 60 60 57 65 69 69 71 69 66 63 61 60 60 60 59 55
76 77 82 74 75 80 80 76 75 70 70 68 62 58 60 63 66 68 69 72 73 75 75 73 69 68 67 66 67 67 65 62
73 75 81 78 80 74 66 70 67 63 66 64 64 70 67 70 75 76 78 78 79 78 74 73 73 71 70 70 70 69 68 67
72 71 69 68 59 42 50 52 58 60 63 67 71 73 73 74 78 81 84 84 83 76 75 73 73 73 74 74 74 74 73 72
60 57 51 48 48 50 62 55 59 67 65 71 74 76 79 82 86 86 83 81 81 78 77 78 78 77 77 79 81 80 80 79
46 44 45 49 53 57 59 60 65 69 72 77 83 83 87 87 83 79 80 79 79 81 81 81 82 83 83 82 83 83 84 84
41 43 45 48 50 55 60 65 69 72 76 79 79 79 80 81 82 81 80 81 82 84 85 86 87 87 87 87 89 90 92 93
43 44 47 50 52 56 60 64 69 73 75 78 79 79 78 79 82 83 83 84 85 87 87 87 88 89 92 94 95 98 101 106
41 44 48 53 58 61 63 66 67 68 69 71 74 76 78 79 80 82 85 86 86 87 90 94 99 102 105 108 109 111 113 114
40 42 46 47 50 54 58 62 64 67 69 71 73 74 76 78 80 82 84 85 88 93 99 104 108 110 111 111 112 113 115 115
39 42 45 48 51 54 58 61 63 65 67 70 72 73 75 77 79 81 86 90 96 101 106 108 109 112 112 114 115 118 122 124
46 49 51 54 56 59 61 63 64 66 68 70 72 73 73 75 81 87 93 98 102 108 112 112 113 113 115 114 113 115 119 120
52 54 57 58 60 61 63 65 66 67 68 69 69 72 79 83 88 92 99 104 107 115 114 117 114 113 111 112 113 114 114 110
51 53 55 57 58 60 59 60 62 64 67 70 75 81 86 90 94 101 106 111 118 117 116 113 109 107 107 108 107 101 97 93

GFSFLT2_250_spd_021.txt.gz
Wind_Speed
53 43 52 48 52 58 63 75 70 67 67 70 80 89 79 82 84 85 75 82 81 76 78 84 86 74 67 62 62 57 53 45
51 52 59 61 66 65 78 74 72 77 79 76 83 80 85 77 76 75 76 75 81 82 86 88 82 69 63 59 55 57 48 48
71 75 81 78 74 82 84 81 82 78 74 79 77 78 73 74 75 77 84 85 87 89 86 80 65 59 57 54 51 47 52 51
83 81 84 83 83 87 86 71 80 80 73 77 80 77 77 78 82 86 93 91 91 84 80 68 60 49 52 54 55 56 57 53
83 86 87 82 83 83 81 69 76 79 79 79 80 82 85 85 92 90 88 84 82 75 67 62 59 59 58 59 61 63 66 59
77 79 82 87 86 85 89 87 83 81 76 81 83 87 91 94 92 87 81 78 69 65 64 62 59 59 60 66 70 74 72 61
63 68 77 82 78 69 73 69 75 79 83 85 90 90 90 89 89 85 76 73 66 67 67 68 68 70 71 75 79 80 75 63
65 67 67 68 72 69 75 83 87 90 91 89 89 87 81 73 74 74 76 75 75 73 74 73 75 76 81 83 83 80 73 71
66 72 75 79 80 80 81 84 85 83 80 76 78 74 70 65 61 65 73 76 78 80 80 84 84 87 86 79 76 75 74 73
66 70 68 71 71 71 70 69 72 70 68 65 64 65 67 66 68 73 77 81 82 86 90 93 92 81 77 78 78 77 75 75
65 67 67 64 61 63 64 68 67 64 65 66 70 70 74 75 77 81 87 88 87 87 84 83 81 84 82 80 80 79 79 77
55 57 57 56 57 62 64 64 64 63 64 67 67 70 73 75 78 80 81 79 79 80 82 84 84 82 82 83 84 83 79 75
47 47 53 53 56 58 59 58 57 59 61 63 65 66 69 71 73 76 79 82 82 84 85 87 86 86 82 82 83 82 82 83
46 47 47 45 44 46 47 48 50 52 55 60 64 69 72 76 80 82 84 86 87 87 85 84 83 84 81 79 82 87 91 93
33 33 33 34 37 41 45 49 54 58 63 67 71 75 78 81 83 86 87 87 86 84 82 81 79 82 87 89 90 93 96 102
27 30 34 38 41 45 49 53 55 59 60 63 65 67 72 74 75 77 77 76 74 75 78 80 85 87 91 98 101 104 107 106
29 33 36 40 45 48 49 51 52 53 55 59 62 65 67 68 69 68 71 73 74 76 82 87 92 96 103 106 108 111 115 118
32 36 39 41 44 46 49 52 55 57 60 63 64 66 68 69 68 69 71 74 79 82 88 95 98 103 108 113 116 116 114 114
33 36 38 42 45 49 51 54 57 58 60 62 65 66 66 68 70 73 77 82 85 91 98 104 106 109 111 111 110 110 110 108
36 41 45 48 52 55 59 60 63 65 65 69 70 71 70 72 75 80 84 89 96 101 106 108 109 109 107 104 106 106 104 100

GFSFLT2_250_spd_024.txt.gz
Wind_Speed
39 61 56 60 60 49 55 48 48 54 56 59 64 72 72 77 84 82 81 81 85 77 80 76 77 80 87 91 83 71 60 54
38 58 65 65 62 55 49 50 48 53 62 63 68 71 77 82 87 75 74 78 87 88 83 83 84 90 89 84 71 61 57 53
59 62 64 58 58 62 62 59 63 68 68 72 74 81 88 90 84 84 84 85 85 90 90 87 92 94 91 74 61 56 51 50
50 43 50 57 56 65 62 68 76 79 82 86 86 87 85 80 82 88 91 91 90 90 90 94 96 93 75 67 60 57 56 54
57 50 51 53 62 67 70 70 75 79 83 79 80 89 91 93 90 91 91 95 96 100 102 101 93 78 64 64 62 63 60 54
62 63 64 70 76 81 81 84 89 90 88 89 90 88 90 93 87 91 96 102 102 99 92 88 79 70 68 69 66 66 66 67
70 73 77 81 81 83 87 88 91 92 93 94 95 91 91 94 94 97 103 104 99 91 81 77 74 72 72 74 75 82 83 82
75 72 70 80 85 85 85 84 89 88 89 91 93 94 97 101 100 99 95 95 88 82 78 77 76 77 78 79 84 88 90 84
69 71 72 71 79 91 87 86 82 84 91 92 91 95 98 97 93 93 89 84 80 79 79 79 83 87 86 79 77 79 79 78
69 79 75 80 78 80 84 83 86 88 91 92 92 94 91 87 86 84 81 78 80 83 84 82 80 80 83 81 78 83 82 82
62 67 70 75 78 81 82 84 84 84 83 83 80 80 80 79 77 75 75 77 77 78 80 81 82 83 83 83 84 84 83 77
52 59 59 65 67 70 75 77 75 74 73 73 74 72 70 68 70 72 76 78 80 82 83 84 86 83 80 78 78 81 80 78
51 53 59 63 66 65 62 62 64 65 64 62 61 62 66 69 72 74 77 80 80 80 81 80 82 80 78 75 72 72 75 77
45 47 50 53 53 54 53 53 51 51 51 55 59 63 67 68 71 72 73 74 74 73 71 68 70 70 69 70 71 73 79 85
43 42 42 43 43 42 41 41 44 49 53 56 59 62 64 66 66 68 70 72 72 72 72 71 70 75 78 80 82 84 87 93
34 35 34 33 34 37 40 42 44 46 48 52 54 58 63 66 67 69 70 73 74 74 74 76 78 79 83 86 92 95 99 101
27 26 29 32 33 35 38 40 42 46 51 54 59 60 63 66 67 69 72 74 74 77 78 79 83 86 90 96 103 107 112 115
24 27 29 31 36 41 44 47 50 53 58 63 67 70 69 68 70 73 75 76 77 78 82 86 90 94 100 105 110 114 113 112
27 30 33 37 42 46 48 53 56 60 64 69 72 75 73 74 75 76 77 80 83 87 93 96 101 104 109 110 110 108 106 104
32 36 40 44 47 52 53 58 63 67 71 74 77 79 78 78 79 79 82 86 92 97 101 105 110 113 111 109 103 103 104 107

GFSFLT2_250_spd_027.txt.gz
Wind_Speed
56 61 52 59 61 63 57 54 52 53 52 50 51 52 52 55 61 67 71 67 76 75 72 76 79 79 91 97 93 90 93 93
45 36 47 52 57 61 50 49 49 47 55 58 60 57 53 59 66 69 74 76 78 77 79 89 91 90 92 92 91 95 95 94
51 58 60 54 51 52 41 49 51 53 61 58 53 64 64 72 74 73 77 86 85 86 89 88 88 92 95 98 97 96 91 80
45 55 53 50 54 55 57 53 58 59 53 54 63 68 71 77 76 80 81 84 85 91 89 99 99 97 95 97 92 89 79 69
52 61 57 56 58 64 49 54 49 55 66 76 68 73 79 87 93 96 97 98 94 93 100 100 100 98 96 95 92 87 79 69
39 52 56 65 68 64 64 61 69 73 73 72 76 83 87 92 87 83 85 90 93 98 99 98 97 98 96 94 87 84 79 76
43 45 58 61 62 64 67 65 73 75 80 85 87 91 91 92 90 91 93 97 100 97 100 100 97 94 93 87 81 79 83 83
53 55 61 63 68 71 74 77 81 82 84 83 86 90 91 95 95 100 101 100 100 101 97 95 90 90 84 82 79 79 80 79
61 65 66 70 73 76 77 77 79 78 82 83 84 88 91 99 101 98 95 98 97 93 92 90 87 83 83 82 82 84 86 87
65 69 76 78 79 78 76 78 82 84 86 88 92 92 94 94 99 100 97 90 88 84 83 82 82 83 86 86 85 83 83 82
68 69 70 69 74 78 82 83 87 91 91 92 93 92 92 90 92 88 84 82 78 77 80 82 83 83 82 82 80 78 77 74
70 70 64 58 65 69 71 76 79 80 83 85 81 83 84 83 78 74 72 74 76 77 78 79 78 78 78 78 77 74 74 72
45 48 50 58 62 69 70 70 74 77 79 82 77 72 66 64 67 69 70 71 72 73 73 74 78 82 79 78 77 76 76 78
51 56 60 62 63 65 66 65 64 65 64 62 58 59 60 59 59 61 64 68 71 73 74 75 78 79 77 77 76 78 78 80
43 49 51 54 56 56 57 57 52 51 52 53 53 52 54 57 62 65 68 71 74 75 76 77 77 77 77 76 76 79 82 87
40 46 49 49 48 45 45 43 44 44 46 48 52 54 57 61 64 67 71 75 78 79 79 79 79 79 81 86 89 90 91 92
35 40 40 41 41 40 41 41 42 43 45 49 54 57 61 67 71 76 79 83 82 79 80 80 82 86 90 94 98 100 103 102
32 34 36 39 40 42 42 44 45 46 50 54 60 63 68 73 77 82 86 86 81 80 83 86 90 96 99 103 104 105 102 98
33 36 38 41 43 43 45 49 53 56 59 62 67 71 75 79 85 88 86 81 82 86 91 96 99 104 108 110 108 105 103 101
33 37 41 45 50 52 52 55 56 60 65 67 73 79 80 85 91 88 84 83 86 92 98 102 106 110 110 109 108 107 110 110

GFSFLT2_250_spd_030.txt.gz
Wind_Speed
36 44 41 45 53 57 58 57 56 56 50 51 54 60 59 58 46 54 56 56 52 59 62 62 67 77 80 76 82 87 91 90
39 41 33 37 40 45 45 48 53 53 53 57 61 60 58 52 56 63 64 60 60 63 75 76 77 83 88 93 95 99 100 99
35 45 45 46 54 53 49 55 53 55 55 44 40 48 57 67 60 59 59 63 65 71 72 83 89 92 96 96 93 96 101 103
61 49 50 52 49 48 51 47 45 45 46 50 53 46 51 52 54 68 80 72 76 81 85 88 94 98 96 104 103 104 101 95
61 62 57 56 54 42 47 51 48 47 48 44 49 56 57 61 71 71 77 86 85 89 88 93 99 105 105 103 103 100 95 96
50 62 61 50 55 52 40 43 51 58 59 62 65 73 74 77 82 83 87 87 90 95 96 100 99 98 89 89 85 85 88 87
46 45 46 55 64 67 64 62 63 63 68 65 60 71 70 76 79 86 87 88 94 94 98 94 94 86 87 86 86 85 86 90
50 50 59 62 57 52 63 58 59 61 67 71 72 77 79 80 84 86 91 94 93 87 83 88 82 88 88 86 88 88 88 88
49 55 57 56 56 62 66 71 66 73 78 80 81 82 88 90 92 90 91 92 90 87 86 89 85 85 83 85 85 87 88 89
57 58 56 57 59 59 66 71 78 79 78 79 83 86 87 84 87 93 88 85 84 84 85 82 77 79 83 85 84 83 83 83
56 61 59 61 69 70 74 74 76 78 80 84 84 83 83 83 84 84 84 83 82 76 72 74 76 76 77 78 80 80 82 83
50 52 57 61 65 70 71 74 79 79 77 75 76 76 79 80 81 80 78 72 69 70 72 73 75 78 79 80 81 80 81 83
52 54 55 57 59 61 66 73 75 72 71 75 76 77 78 77 75 72 69 68 70 70 71 73 78 81 84 86 84 81 81 81
45 44 50 55 54 57 59 62 67 72 75 74 74 74 72 71 68 68 67 67 70 71 73 78 82 87 88 82 77 79 82 85
38 42 48 53 56 59 60 62 61 64 66 67 65 64 66 67 66 65 65 68 73 75 79 84 88 90 86 81 80 83 87 93
40 44 49 49 54 54 56 57 57 56 56 59 60 62 64 64 65 67 69 74 77 80 86 91 95 92 87 87 89 91 94 98
35 38 42 47 49 48 47 48 49 53 57 58 60 62 66 70 73 74 75 77 80 85 90 94 93 90 90 90 94 99 104 108
30 40 39 39 40 42 43 46 51 54 57 60 63 66 67 68 71 74 77 79 84 89 95 96 93 91 92 95 99 104 109 112
31 33 35 38 41 44 47 49 51 55 58 60 64 67 69 69 72 75 79 84 88 93 96 93 92 93 96 102 107 112 113 112
29 36 39 42 44 46 48 52 55 54 57 62 64 65 66 68 74 80 85 89 92 98 95 93 95 99 105 110 112 112 111 110

GFSFLT2_250_spd_033.txt.gz
Wind_Speed
33 36 40 44 42 48 49 47 49 52 55 57 56 53 54 50 55 59 61 63 58 55 57 56 57 56 55 62 68 73 80 84
24 23 31 41 46 45 37 41 44 49 50 52 51 52 54 53 58 50 52 57 59 49 48 56 55 63 69 78 76 78 84 90
35 41 50 57 53 46 52 52 46 46 45 47 52 54 47 48 58 46 45 46 45 54 60 66 73 76 78 82 84 88 91 94
46 49 54 57 58 53 54 54 49 50 47 53 51 47 43 48 44 41 41 52 60 65 73 75 83 85 86 88 92 94 98 99
50 42 55 51 59 56 52 54 51 49 50 37 42 48 49 47 44 70 67 70 79 75 71 74 81 84 87 91 96 99 99 96
52 52 56 58 61 59 58 58 46 50 49 42 50 64 56 67 65 64 74 72 70 78 85 91 92 91 96 99 98 94 89 85
59 62 61 65 54 46 40 41 42 52 52 59 56 61 59 68 68 72 72 78 85 85 88 91 94 96 95 94 87 85 82 78
58 58 55 52 56 46 49 49 54 60 56 54 55 65 68 68 75 78 79 83 84 89 92 86 82 82 84 81 73 70 69 71
50 57 62 59 58 62 63 64 55 65 66 61 69 72 74 78 82 85 89 88 90 82 79 78 76 80 76 75 75 71 72 74
45 45 45 52 54 60 62 63 71 67 67 69 73 74 78 85 88 90 89 87 81 81 81 78 77 72 75 71 74 74 76 79
46 48 52 57 60 62 62 65 60 62 68 73 78 80 83 81 78 76 76 82 82 76 77 73 72 72 72 76 79 81 83 85
49 49 58 59 60 61 66 67 69 72 72 69 66 67 69 70 73 79 79 76 72 72 72 71 73 74 77 81 84 86 89 92
47 49 48 49 54 59 59 64 66 64 64 67 67 69 71 73 76 74 75 71 70 71 72 74 75 78 83 87 91 92 94 97
51 55 54 54 56 55 58 60 61 61 64 68 69 70 71 71 73 72 70 71 72 73 77 79 84 86 89 89 90 95 98 102
51 52 51 49 50 52 52 53 54 58 61 63 63 64 64 66 67 69 71 74 77 79 82 84 84 84 85 90 93 95 101 102
44 45 46 46 48 49 50 55 55 57 58 59 58 59 62 66 70 73 77 78 79 80 80 77 80 85 89 93 97 101 99 94
43 41 43 40 40 41 43 49 50 51 52 54 57 62 66 68 69 66 68 73 75 74 78 81 85 88 92 96 100 97 97 100
39 31 32 35 35 36 39 44 47 51 53 57 62 65 68 66 68 69 68 68 73 78 81 86 90 92 96 97 95 97 102 108
29 28 29 34 37 40 42 46 49 54 57 58 62 64 67 69 69 68 70 76 80 83 87 90 92 95 93 95 99 106 108 110
23 32 31 36 40 45 48 50 53 54 58 61 64 67 69 69 70 72 76 81 83 88 91 92 90 92 96 101 107 108 108 108

GFSFLT2_250_spd_036.txt.gz
Wind_Speed
52 49 51 50 48 50 49 52 55 57 55 54 56 58 58 60 56 53 56 58 57 59 54 54 55 50 53 53 50 56 63 68
39 32 48 42 41 37 47 49 56 55 53 55 56 56 52 51 51 50 53 57 56 55 53 47 43 47 53 56 66 70 71 72
35 38 43 37 46 39 44 43 47 52 52 56 51 53 50 49 50 50 51 56 56 45 35 43 54 66 67 70 73 80 79 81
56 45 38 39 35 42 53 52 53 53 55 52 52 51 51 48 51 54 52 55 53 39 57 68 73 71 75 74 74 78 84 88
42 34 37 40 49 53 58 56 53 56 62 60 58 51 57 61 55 47 48 44 54 62 67 67 71 74 78 82 85 84 89 91
44 44 41 51 53 59 54 57 57 55 59 63 56 54 63 47 40 52 52 58 70 71 67 71 77 81 85 89 89 84 86 91
48 49 50 52 53 52 57 58 55 50 44 49 36 36 45 50 53 55 61 65 68 73 77 86 87 92 92 91 86 86 83 75
46 47 52 50 51 54 62 60 60 49 43 52 54 62 64 64 71 68 68 72 79 82 85 85 82 83 83 80 77 72 71 70
54 55 56 58 56 57 63 63 60 56 63 63 69 68 70 65 67 74 77 79 83 85 82 83 85 85 77 76 70 69 70 70
51 54 61 64 60 62 58 59 62 62 58 62 65 61 62 70 71 74 78 78 78 79 76 75 78 74 72 70 72 73 73 76
51 50 49 53 59 61 56 59 57 58 64 66 71 71 71 74 77 80 79 76 76 73 75 73 73 72 74 77 77 78 81 83
45 47 50 53 53 54 54 55 61 66 67 70 70 71 73 73 73 73 71 71 72 71 69 70 73 77 79 80 81 83 86 86
49 54 48 52 53 55 59 54 55 58 61 64 68 68 68 66 66 65 67 69 67 67 70 75 77 77 78 80 82 81 82 83
46 53 54 57 55 57 58 61 62 63 64 60 61 61 61 64 65 65 65 64 66 70 73 72 74 78 81 78 77 82 85 89
49 52 53 54 59 56 56 57 56 56 55 55 55 57 58 60 61 60 62 66 70 73 75 79 81 78 77 81 83 85 89 92
39 40 41 44 47 49 50 51 51 51 49 48 51 52 53 56 60 63 66 68 70 74 77 77 75 79 83 87 87 92 94 91
37 39 42 44 45 43 40 42 45 45 46 49 51 53 56 60 63 65 68 69 72 73 75 76 77 81 85 87 90 96 96 94
42 38 40 38 35 38 37 38 41 45 48 51 55 58 61 63 65 67 71 72 71 73 74 78 82 84 87 91 97 96 94 98
37 35 33 32 28 36 38 41 45 47 52 57 59 63 65 64 67 70 71 71 73 76 80 83 82 84 90 97 96 96 100 106
33 22 20 32 35 37 40 42 48 54 58 60 63 63 65 66 70 71 73 75 79 83 83 83 84 89 96 95 96 101 106 108

GFSFLT2_250_spd_039.txt.gz
Wind_Speed
42 49 56 64 52 47 47 49 52 53 54 57 60 59 59 58 59 55 57 55 53 53 54 57 59 60 60 63 51 46 53 59
39 44 50 46 44 42 35 39 46 48 52 57 55 56 55 52 53 56 56 53 54 52 51 56 55 58 49 44 51 57 64 68
34 32 34 34 36 36 37 38 40 46 49 47 54 52 54 55 53 51 50 53 52 57 63 65 50 39 53 59 62 64 69 70
40 38 39 34 37 38 44 43 44 51 53 55 54 53 55 57 56 60 56 55 62 65 55 49 51 54 57 62 69 70 73 73
55 47 40 45 43 48 50 51 55 57 57 54 57 53 54 56 57 62 63 68 54 45 51 52 61 65 68 72 76 81 84 85
56 53 51 57 56 53 52 53 53 55 56 58 60 55 56 57 64 66 60 48 52 56 59 64 70 75 78 81 80 79 77 79
56 59 58 56 57 52 56 51 58 56 58 60 62 60 60 64 63 51 55 54 61 65 69 72 75 78 77 78 81 78 75 74
56 50 49 53 53 56 57 54 58 60 61 61 61 63 61 61 59 58 63 61 62 66 70 76 75 76 79 72 74 72 69 67
46 46 42 43 48 52 51 52 56 59 58 63 64 60 57 59 60 62 64 68 73 75 80 79 84 85 73 70 68 66 68 71
46 48 46 45 47 53 58 60 57 53 56 52 54 57 59 61 65 69 73 72 75 78 79 81 75 71 67 65 64 67 70 70
50 50 50 53 52 49 55 52 53 58 56 59 60 62 63 67 71 71 75 78 79 79 75 72 69 63 63 65 68 71 73 75
41 49 43 53 57 51 53 56 62 60 59 62 63 67 69 70 72 73 74 69 68 69 67 67 64 65 67 70 72 74 77 76
43 44 45 51 53 55 54 55 55 54 59 62 66 70 69 70 66 67 64 62 66 64 63 63 65 67 70 73 76 77 74 75
44 41 41 44 47 51 57 58 55 61 65 65 65 65 65 67 66 60 60 60 59 60 62 65 67 70 75 75 71 72 77 81
42 42 45 48 51 53 57 61 63 59 60 63 64 61 60 58 54 54 55 58 60 63 65 67 72 74 72 74 73 78 82 85
40 42 44 45 45 48 47 47 50 50 48 48 47 49 46 50 52 56 58 61 64 66 69 71 73 70 72 74 81 85 86 86
35 33 34 36 40 41 39 43 42 42 42 42 44 46 50 53 58 61 63 66 66 68 72 73 73 74 76 81 85 87 88 89
33 35 38 36 34 39 42 44 41 37 38 42 46 49 53 58 61 64 67 67 69 72 75 75 75 79 83 85 88 90 92 93
33 35 36 36 35 39 40 38 40 41 44 48 51 53 58 62 65 68 69 71 73 75 76 75 78 82 86 88 91 93 95 99
35 36 36 30 32 37 33 36 41 47 53 56 58 59 60 65 68 69 72 73 75 77 77 80 83 86 88 92 94 96 99 101

GFSFLT2_250_spd_042.txt.gz
Wind_Speed
40 39 46 57 60 60 59 63 62 60 59 59 55 57 57 56 56 60 59 60 61 60 58 58 59 58 57 58 58 57 50 49
39 40 36 39 35 26 42 46 40 39 42 46 48 52 53 54 53 56 55 58 58 57 57 63 60 62 63 58 52 47 49 53
39 39 40 40 35 30 37 35 37 32 38 41 47 49 52 55 53 52 52 54 56 58 58 58 61 63 52 49 51 53 56 58
50 43 44 29 28 32 33 30 35 38 39 46 47 47 45 46 50 57 57 56 56 58 60 59 57 51 49 54 58 62 64 70
52 52 40 32 46 36 33 38 43 43 45 50 54 52 52 53 56 60 54 55 60 60 60 57 51 54 61 63 65 71 73 74
51 46 51 41 41 42 37 43 49 49 47 52 56 57 56 58 59 60 61 62 62 62 58 56 58 62 62 64 68 73 74 76
52 58 52 50 48 47 54 53 56 54 52 53 62 65 61 63 60 63 62 61 61 59 58 58 64 68 71 76 78 78 78 70
57 52 57 55 54 51 55 57 49 49 52 58 64 61 60 59 61 62 60 57 60 60 62 66 70 74 76 79 81 80 69 63
57 57 54 55 52 50 57 60 61 49 54 56 60 55 57 58 59 55 57 60 62 64 67 70 70 69 69 67 66 63 61 64
51 52 51 53 51 51 50 58 57 58 59 60 59 59 58 58 55 59 62 65 67 71 73 72 70 71 69 63 63 63 62 65
45 49 45 47 52 54 52 47 52 52 56 63 63 64 65 61 62 68 69 70 74 74 73 68 71 65 62 61 62 63 64 68
40 43 49 48 49 50 47 49 46 46 53 58 61 62 62 65 66 68 72 73 71 70 69 67 64 61 60 62 62 65 69 73
42 45 46 44 48 53 44 46 52 52 51 59 63 64 68 64 70 74 75 71 71 67 64 61 59 60 62 63 64 70 75 76
48 46 45 45 46 47 49 61 66 71 70 70 65 66 67 69 70 69 69 64 62 58 56 60 61 63 65 67 70 71 74 75
38 48 50 46 46 48 53 49 50 54 59 61 63 63 63 61 63 65 58 56 56 58 62 63 64 68 70 74 75 79 78 75
36 38 39 43 47 47 53 57 55 57 55 57 55 54 54 54 55 53 53 55 57 63 66 67 70 72 75 77 80 82 83 85
34 33 36 37 42 46 46 47 51 51 53 51 51 51 52 51 50 52 55 59 62 66 69 71 73 76 76 75 78 82 86 89
38 33 36 34 35 39 43 41 42 46 50 51 51 48 47 49 52 58 61 64 68 70 70 74 78 79 77 77 81 84 87 89
36 39 39 36 34 33 36 41 40 43 44 49 47 47 52 56 61 64 66 69 70 70 76 78 79 79 77 81 85 88 92 93
33 32 32 33 31 27 23 35 39 36 41 46 52 53 56 61 65 67 68 70 72 76 81 83 79 80 81 85 89 92 94 96

GFSFLT2_250_spd_045.txt.gz
Wind_Speed
39 46 46 52 62 52 56 69 71 67 67 67 64 65 63 61 61 58 58 59 60 59 60 61 63 61 60 58 56 58 58 55
25 18 29 37 47 46 42 35 42 51 50 51 50 49 46 48 51 56 55 57 57 56 59 60 57 58 55 56 55 55 54 53
42 33 25 31 36 38 34 32 31 37 36 31 37 41 44 48 50 52 55 53 52 54 57 59 58 57 55 56 55 56 55 58
47 47 46 41 36 34 38 34 38 32 30 31 39 45 42 46 46 42 42 52 55 58 59 59 60 59 59 58 58 58 55 61
53 43 46 44 40 43 34 38 35 22 32 39 43 46 48 49 50 52 59 59 59 58 60 63 64 57 57 56 58 60 64 69
58 47 52 47 45 44 42 43 38 31 37 46 45 51 54 58 60 61 58 58 63 66 60 59 59 59 56 62 64 69 71 73
67 61 53 54 49 51 47 43 42 41 50 54 48 51 55 54 53 60 65 65 67 59 59 56 62 61 63 66 70 71 75 72
63 60 59 55 56 54 46 44 43 44 52 54 56 57 59 60 62 64 60 61 58 59 59 60 61 65 68 71 75 76 77 75
55 57 61 59 60 54 49 49 50 53 53 48 51 53 52 55 60 63 65 60 61 59 65 64 69 73 73 76 77 73 72 68
50 52 54 60 60 55 51 50 48 49 50 48 47 49 47 55 58 60 65 69 66 69 75 72 73 73 77 76 71 68 64 65
47 52 57 55 58 59 59 53 49 49 46 49 55 57 58 60 65 65 70 73 77 77 74 75 77 77 73 66 62 60 62 64
37 40 40 40 57 55 55 56 49 44 52 54 57 55 58 61 63 66 65 65 73 75 77 75 76 72 65 60 59 62 62 64
33 26 36 48 43 40 40 39 43 57 57 57 60 60 57 58 63 67 75 78 82 73 70 68 66 63 62 63 60 62 66 71
31 36 37 39 42 41 46 55 58 56 53 53 55 59 64 71 77 79 79 79 77 71 67 61 61 62 62 63 67 67 61 69
38 39 43 40 43 46 44 45 50 57 61 63 66 66 62 64 67 69 70 70 66 65 62 60 60 64 67 69 73 72 76 76
36 39 42 42 45 45 46 50 54 54 57 59 62 66 69 68 67 66 63 61 61 60 61 62 66 69 72 75 76 77 81 86
36 34 35 36 41 49 53 56 57 60 62 64 66 65 63 63 62 60 59 60 59 60 62 67 71 76 77 77 77 81 88 91
39 39 37 41 41 41 44 46 49 50 46 45 54 60 61 57 58 59 55 57 62 63 67 73 75 77 77 81 83 88 92 89
34 35 37 40 41 42 43 45 46 41 38 47 53 58 58 58 57 54 57 64 68 71 73 77 78 79 82 85 90 92 91 91
37 39 40 40 42 34 35 44 45 40 42 45 57 56 53 56 56 59 64 70 75 76 76 79 81 83 86 92 96 92 91 93

GFSFLT2_250_spd_048.txt.gz
Wind_Speed
43 37 34 30 36 39 41 51 57 58 64 67 70 67 68 69 66 67 70 71 70 72 69 67 63 62 61 57 59 59 58 58
60 53 45 38 29 36 34 39 43 52 52 48 45 50 50 56 59 57 58 58 57 58 56 53 55 56 55 58 58 57 56 53
75 60 42 40 30 23 26 26 31 32 27 33 30 28 33 35 40 50 51 48 48 49 46 48 52 56 57 56 59 61 59 58
63 51 43 43 43 37 25 32 32 29 25 22 24 23 28 32 37 42 44 41 46 44 41 50 57 57 55 59 55 55 60 58
61 54 47 45 45 39 35 33 35 35 32 31 22 28 35 45 45 47 43 48 51 53 56 58 60 60 63 65 63 61 62 62
55 60 55 47 43 42 43 42 41 38 39 36 35 41 43 44 47 48 48 53 54 57 60 61 61 61 67 60 65 68 61 66
62 61 58 50 48 47 45 42 49 45 45 47 39 40 42 45 51 49 51 55 53 55 57 61 70 63 64 64 72 64 74 76
60 63 56 50 54 51 41 48 47 45 45 42 45 47 52 54 53 50 53 56 58 59 60 61 62 64 67 72 72 75 78 73
59 62 61 53 52 56 50 50 48 48 49 47 53 52 55 54 57 58 58 58 58 59 60 62 66 69 71 75 79 78 80 83
57 61 59 59 53 60 53 50 51 50 46 48 50 56 59 60 60 61 58 53 56 61 65 68 69 72 77 74 78 80 82 75
49 56 59 52 55 57 57 55 54 54 52 51 49 51 54 52 53 51 56 62 66 65 68 72 74 78 79 84 85 79 76 70
46 50 56 52 47 54 55 56 56 55 59 53 55 47 50 51 56 61 58 57 62 66 69 74 75 85 84 80 79 76 72 63
39 42 41 46 47 55 63 58 54 61 60 50 53 55 56 57 58 62 66 68 67 70 74 80 79 79 77 77 72 66 64 65
28 33 34 34 37 36 43 50 53 56 57 60 62 60 56 58 62 65 63 69 76 80 80 80 81 79 74 72 70 66 63 65
27 30 32 32 35 40 42 41 46 48 52 51 54 61 66 67 70 69 73 75 78 79 76 75 74 73 70 67 66 66 67 70
34 37 39 42 43 43 43 48 55 54 53 52 50 52 56 59 61 66 68 70 70 72 75 74 71 67 66 67 69 71 74 78
38 39 39 42 45 49 48 48 52 56 56 57 59 62 67 70 70 71 68 71 71 73 72 72 70 67 67 71 74 77 81 83
37 36 39 42 43 43 41 43 48 49 48 50 50 56 63 62 64 67 65 67 71 71 70 68 68 72 76 79 79 84 86 87
29 34 40 41 44 43 45 45 45 48 48 45 49 49 48 56 62 73 73 72 72 72 70 70 73 78 83 83 86 88 90 93
32 32 34 35 37 38 40 44 50 52 50 45 49 44 48 62 66 69 72 71 69 70 74 72 78 84 82 86 90 91 94 98

GFSFLT2_250_spd_051.txt.gz
Wind_Speed
41 47 38 33 50 53 57 53 42 34 31 36 40 45 51 61 70 70 68 66 70 67 71 66 64 62 57 55 58 57 54 56
70 43 50 41 42 39 57 43 34 44 32 30 35 41 46 44 45 51 51 52 53 56 51 55 47 46 49 47 50 54 59 59
65 56 61 51 60 63 58 32 25 20 21 25 29 24 28 39 26 32 38 41 39 39 41 39 40 39 42 47 55 55 59 59
59 60 65 68 66 60 46 34 31 23 25 25 28 28 19 24 23 29 35 34 35 37 38 39 39 42 48 52 57 57 59 63
62 66 67 65 64 58 51 39 31 28 28 32 32 28 28 22 29 33 39 42 43 40 39 41 44 49 53 53 56 59 60 61
70 66 74 69 56 52 50 41 40 34 42 38 33 33 31 31 32 38 41 49 41 40 41 42 47 51 53 58 59 61 62 59
78 72 67 62 54 49 48 50 48 50 43 44 37 36 42 41 43 44 46 46 42 45 45 49 47 48 55 60 65 62 59 64
85 71 65 62 62 52 53 51 55 53 50 46 42 41 49 48 43 42 44 45 49 48 46 46 53 58 61 62 60 60 69 72
64 81 69 64 64 58 58 53 55 51 51 46 47 46 50 48 47 49 49 49 52 47 54 58 60 58 58 62 66 66 68 72
53 57 59 61 58 62 64 61 58 51 47 45 48 45 49 47 49 52 55 54 57 52 57 62 60 62 64 71 66 70 74 80
53 53 56 62 62 66 60 57 58 56 47 47 49 46 51 50 53 51 54 57 55 54 57 59 64 64 65 67 70 75 81 85
48 53 55 56 59 58 56 56 54 58 58 52 48 48 54 50 51 53 51 50 54 58 60 65 68 72 75 75 76 78 81 78
45 49 53 55 58 57 48 56 55 52 52 56 57 58 58 59 59 58 57 59 60 63 68 70 69 71 75 76 78 80 81 76
45 45 52 53 53 59 59 48 50 53 55 52 53 58 60 64 60 60 62 66 67 66 66 77 82 79 81 80 76 74 74 72
31 35 38 49 45 39 42 44 40 41 44 49 59 58 55 60 64 66 69 71 71 72 79 79 74 73 73 72 72 74 74 74
22 30 29 33 33 36 38 40 42 44 46 49 52 53 52 52 59 61 62 66 67 69 70 71 72 73 71 74 78 80 76 70
28 29 27 30 34 38 41 45 47 52 51 55 56 58 60 63 64 65 65 63 67 74 72 73 74 79 75 80 79 77 76 76
31 30 34 38 39 41 49 51 56 56 55 55 55 58 61 65 64 60 61 74 79 77 77 79 81 79 79 79 83 81 78 79
35 33 37 38 44 47 48 50 53 57 59 57 49 47 53 56 51 53 60 68 69 69 72 74 76 80 82 81 85 88 85 91
22 29 32 35 38 42 45 48 50 54 53 51 53 56 55 53 54 57 60 65 68 71 74 78 80 82 80 86 91 92 93 96